Augusta, GA

8:53 PM EDT on March 22, 2017 (GMT -0400)
Daniel

Weather History for KDNL - July, 2013

Change the Weather History Date:

Thursday, July 4, 2013

  Actual Average Record
Temperature  
Mean Temperature 79 °F -  
Max Temperature 88 °F 88 °F 100 °F (1997)
Min Temperature 69 °F 70 °F 65 °F (2010)
Cooling Degree Days 14    
Month to date cooling degree days 47  
Year to date cooling degree days 757  
Since 1 June cooling degree days 463  
Growing Degree Days 26 (Base 50)    
Moisture  
Dew Point 71 °F    
Average Humidity 85    
Maximum Humidity 100    
Minimum Humidity 61    
Precipitation  
Precipitation 0.44 in - - ()
Month to date precipitation 1.35  
Year to date precipitation 33.59  
Sea Level Pressure  
Sea Level Pressure 30.17 in    
Wind  
Wind Speed 6 mph (SSE)    
Max Wind Speed 18 mph    
Max Gust Speed 24 mph    
Visibility 9 miles    
Events Rain    
Averages and records for this station are not official NWS values.
T = Trace of Precipitation, MM = Missing Value Source: NWS Daily Summary

Daily Weather History Graph

Daily Weather History Graph

Search for Another Location

Airport or City:

Trip Planner

Search our weather history database for the weather conditions in past years. The results will help you decide how hot, cold, wet, or windy it might be!

Date:

Astronomy

Jul. 04, 2013 Rise Set
Actual Time 6:23 AM EDT 8:41 PM EDT
Civil Twilight 5:54 AM EDT 9:10 PM EDT
Nautical Twilight 5:19 AM EDT 9:45 PM EDT
Astronomical Twilight 4:41 AM EDT 10:23 PM EDT
Moon 3:35 AM EDT (7/4) 5:48 PM EDT (7/4)
Length of Visible Light 15h 15m
Length of Day
14h 18m
Waning Crescent, 11% of the Moon is Illuminated
Jul 4
Waning Crescent
Jul 8
New
Jul 15
First Quarter
Jul 22
Full
Jul 29
Last Quarter

Hourly Weather History & Observations

Time (EDT) Temp. Heat Index Dew Point Humidity Pressure Visibility Wind Dir Wind Speed Gust Speed Precip Events Conditions
12:38 AM 73.4 °F - 71.6 °F 94% 30.20 in 10.0 mi SE 4.6 mph - N/A   Overcast
12:53 AM 73.0 °F - 72.0 °F 96% 30.18 in 10.0 mi SE 5.8 mph - N/A   Overcast
1:53 AM 73.9 °F - 73.0 °F 97% 30.18 in 4.0 mi South 4.6 mph - N/A   Overcast
2:18 AM 71.6 °F - 66.2 °F 83% 30.19 in 10.0 mi Variable 6.9 mph - N/A   Overcast
2:32 AM 69.8 °F - 66.2 °F 88% 30.19 in 10.0 mi West 3.5 mph - 0.00 in Rain Light Rain
2:53 AM 70.0 °F - 68.0 °F 93% 30.17 in 6.0 mi West 4.6 mph - 0.07 in Rain Light Rain
3:13 AM 69.8 °F - 68.0 °F 94% 30.17 in 2.5 mi Calm Calm - 0.08 in Rain Rain
3:20 AM 69.8 °F - 68.0 °F 94% 30.17 in 3.0 mi WNW 4.6 mph - 0.12 in Rain Heavy Rain
3:53 AM 70.0 °F - 68.0 °F 93% 30.16 in 8.0 mi Calm Calm - 0.16 in Rain Light Rain
4:38 AM 69.8 °F - 68.0 °F 94% 30.17 in 10.0 mi North 3.5 mph - 0.06 in Rain Light Rain
4:53 AM 70.0 °F - 69.1 °F 97% 30.15 in 10.0 mi Calm Calm - 0.06 in Rain Light Rain
5:24 AM 69.8 °F - 69.8 °F 100% 30.18 in 4.0 mi NW 3.5 mph - 0.04 in Rain Heavy Rain
5:53 AM 72.0 °F - 69.1 °F 91% 30.16 in 10.0 mi SE 3.5 mph - 0.05 in Rain Light Rain
5:59 AM 71.6 °F - 69.8 °F 94% 30.17 in 10.0 mi Calm Calm - 0.00 in   Overcast
6:06 AM 71.6 °F - 69.8 °F 94% 30.18 in 10.0 mi Calm Calm - 0.00 in   Overcast
6:17 AM 73.4 °F - 69.8 °F 88% 30.18 in 10.0 mi Calm Calm - 0.00 in Rain Light Rain
6:53 AM 73.9 °F - 72.0 °F 93% 30.17 in 10.0 mi ESE 5.8 mph - 0.00 in   Overcast
7:24 AM 73.4 °F - 71.6 °F 94% 30.18 in 8.0 mi ESE 5.8 mph - N/A   Overcast
7:53 AM 73.9 °F - 73.0 °F 97% 30.18 in 7.0 mi ESE 6.9 mph - 0.00 in Rain Light Rain
8:53 AM 75.9 °F - 73.9 °F 94% 30.19 in 9.0 mi ESE 5.8 mph - 0.00 in   Overcast
9:19 AM 77.0 °F - 73.4 °F 89% 30.20 in 10.0 mi SE 8.1 mph - 0.00 in   Overcast
9:29 AM 77.0 °F - 73.4 °F 89% 30.20 in 10.0 mi SE 6.9 mph - 0.00 in   Overcast
9:38 AM 77.0 °F - 73.4 °F 89% 30.20 in 10.0 mi SE 4.6 mph - 0.00 in   Overcast
9:53 AM 78.1 °F - 73.9 °F 87% 30.18 in 10.0 mi SE 8.1 mph - 0.00 in   Mostly Cloudy
10:49 AM 82.4 °F 88.2 °F 73.4 °F 74% 30.20 in 10.0 mi SE 8.1 mph - 0.00 in   Scattered Clouds
10:53 AM 82.0 °F 87.4 °F 73.0 °F 74% 30.18 in 10.0 mi SE 11.5 mph - 0.00 in   Scattered Clouds
11:53 AM 82.9 °F 88.0 °F 72.0 °F 69% 30.17 in 10.0 mi SE 11.5 mph 21.9 mph 0.00 in   Mostly Cloudy
12:53 PM 84.9 °F 90.7 °F 72.0 °F 65% 30.16 in 10.0 mi SE 10.4 mph 16.1 mph 0.00 in   Scattered Clouds
1:53 PM 82.0 °F 86.3 °F 71.1 °F 69% 30.14 in 10.0 mi SSE 3.5 mph - N/A   Scattered Clouds
2:53 PM 84.9 °F 89.4 °F 70.0 °F 61% 30.12 in 10.0 mi SE 12.7 mph 24.2 mph N/A   Clear
3:53 PM 82.9 °F 87.5 °F 71.1 °F 67% 30.12 in 10.0 mi SE 9.2 mph - N/A   Clear
4:53 PM 82.0 °F 86.7 °F 72.0 °F 71% 30.12 in 10.0 mi SSE 3.5 mph - 0.00 in   Clear
5:53 PM 82.9 °F 87.5 °F 71.1 °F 67% 30.14 in 10.0 mi SSE 6.9 mph - N/A   Clear
6:53 PM 81.0 °F 84.1 °F 69.1 °F 67% 30.14 in 10.0 mi South 11.5 mph 17.3 mph N/A   Clear
7:53 PM 80.1 °F 83.2 °F 70.0 °F 71% 30.17 in 10.0 mi South 4.6 mph - N/A   Scattered Clouds
8:20 PM 78.8 °F - 71.6 °F 78% 30.18 in 10.0 mi SW 3.5 mph - N/A   Mostly Cloudy
8:31 PM 78.8 °F - 71.6 °F 78% 30.19 in 10.0 mi SW 4.6 mph - N/A   Mostly Cloudy
8:41 PM 77.0 °F - 71.6 °F 83% 30.18 in 10.0 mi WSW 4.6 mph - N/A   Mostly Cloudy
8:53 PM 75.0 °F - 70.0 °F 84% 30.17 in 10.0 mi Calm Calm - N/A   Overcast
9:53 PM 73.0 °F - 69.1 °F 87% 30.18 in 2.5 mi South 8.1 mph - 0.10 in Rain Light Rain
9:57 PM 73.4 °F - 69.8 °F 88% 30.19 in 8.0 mi SSE 6.9 mph - 0.00 in Rain Light Rain
10:53 PM 72.0 °F - 69.1 °F 91% 30.19 in 10.0 mi SSE 8.1 mph - 0.00 in   Clear
11:53 PM 72.0 °F - 69.1 °F 91% 30.19 in 10.0 mi ESE 4.6 mph - N/A   Clear